| time (UTC) | temp C | wind direction | speed KPH | gust KPH | rain 1hr cm | rain 24hr cm | rain mn cm | humidity % | barometer mb |
| 20260504015350 | 15 | 27 | 0.0 | 0.0 | 0.00 | 0.08 | 0.00 | 93 | 1014.3 |
| 20260504014353 | 15 | 27 | 0.0 | 0.0 | 0.00 | 0.08 | 0.00 | 92 | 1014.6 |
| 20260504013354 | 15 | 27 | 0.0 | 0.0 | 0.00 | 0.08 | 0.00 | 92 | 1014.7 |
| 20260504012351 | 15 | 27 | 0.0 | 0.0 | 0.00 | 0.08 | 0.00 | 92 | 1014.7 |
| 20260504011357 | 15 | 27 | 0.0 | 0.0 | 0.00 | 0.08 | 0.00 | 92 | 1014.8 |
| 20260504010338 | 15 | 27 | 0.0 | 0.0 | 0.00 | 0.08 | 0.00 | 92 | 1014.8 |
| 20260504005356 | 15 | 27 | 0.0 | 0.0 | 0.00 | 0.08 | 0.00 | 92 | 1015.0 |
| 20260504004355 | 15 | 27 | 0.0 | 0.0 | 0.00 | 0.08 | 0.00 | 92 | 1015.1 |
| 20260504003337 | 15 | 27 | 0.0 | 0.0 | 0.00 | 0.08 | 0.00 | 92 | 1015.2 |
| 20260504002337 | 15 | 27 | 0.0 | 3.2 | 0.00 | 0.08 | 0.00 | 92 | 1015.3 |
| 20260504001337 | 15 | 27 | 1.6 | 6.4 | 0.00 | 0.08 | 0.00 | 91 | 1015.2 |
| 20260504000336 | 15 | 31 | 0.0 | 0.0 | 0.00 | 0.08 | 0.00 | 92 | 1015.2 |
| 20260503235356 | 15 | 34 | 0.0 | 0.0 | 0.00 | 0.08 | 0.00 | 92 | 1015.1 |
| 20260503234338 | 15 | 34 | 0.0 | 0.0 | 0.00 | 0.08 | 0.00 | 92 | 1015.4 |
| 20260503233341 | 15 | 34 | 0.0 | 0.0 | 0.00 | 0.08 | 0.00 | 91 | 1015.5 |
| 20260503232354 | 15 | 34 | 0.0 | 3.2 | 0.00 | 0.08 | 0.00 | 91 | 1015.4 |
| 20260503231353 | 15 | 34 | 1.6 | 4.8 | 0.00 | 0.08 | 0.00 | 91 | 1015.4 |
| 20260503230339 | 15 | 34 | 1.6 | 3.2 | 0.00 | 0.08 | 0.00 | 91 | 1015.5 |
| 20260503225358 | 15 | 34 | 3.2 | 6.4 | 0.00 | 0.08 | 0.00 | 90 | 1015.5 |
| 20260503224358 | 15 | 32 | 4.8 | 6.4 | 0.00 | 0.08 | 0.00 | 90 | 1015.5 |
| 20260503223358 | 15 | 26 | 3.2 | 6.4 | 0.00 | 0.08 | 0.00 | 89 | 1015.6 |
| 20260503222354 | 15 | 33 | 3.2 | 8.0 | 0.00 | 0.08 | 0.00 | 89 | 1015.7 |
| 20260503221339 | 15 | 11 | 4.8 | 11.3 | 0.00 | 0.08 | 0.00 | 89 | 1015.8 |
| 20260503220343 | 15 | 26 | 4.8 | 11.3 | 0.00 | 0.08 | 0.00 | 90 | 1015.6 |
| 20260503215343 | 15 | 33 | 6.4 | 11.3 | 0.00 | 0.08 | 0.08 | 90 | 1015.7 |
| 20260503214350 | 15 | 24 | 4.8 | 8.0 | 0.00 | 0.08 | 0.08 | 89 | 1015.9 |
| 20260503213356 | 15 | 38 | 4.8 | 9.7 | 0.00 | 0.08 | 0.08 | 89 | 1015.8 |
| 20260503212351 | 15 | 39 | 3.2 | 8.0 | 0.05 | 0.08 | 0.08 | 87 | 1015.9 |
| 20260503211351 | 15 | 34 | 1.6 | 6.4 | 0.05 | 0.08 | 0.08 | 87 | 1015.9 |
| 20260503210355 | 15 | 35 | 3.2 | 11.3 | 0.05 | 0.08 | 0.08 | 86 | 1016.0 |
| 20260503205357 | 15 | 51 | 3.2 | 8.0 | 0.05 | 0.08 | 0.05 | 85 | 1015.9 |
| 20260503204355 | 15 | 23 | 4.8 | 8.0 | 0.05 | 0.08 | 0.05 | 83 | 1016.0 |
| 20260503203359 | 15 | 101 | 0.0 | 6.4 | 0.05 | 0.08 | 0.05 | 82 | 1016.2 |
| 20260503202356 | 16 | 99 | 4.8 | 9.7 | 0.03 | 0.05 | 0.03 | 81 | 1016.2 |
| 20260503201357 | 16 | 48 | 0.0 | 3.2 | 0.00 | 0.03 | 0.03 | 80 | 1016.0 |
| 20260503200341 | 16 | 48 | 1.6 | 4.8 | 0.00 | 0.03 | 0.03 | 80 | 1015.8 |
| 20260503195358 | 16 | 48 | 0.0 | 3.2 | 0.00 | 0.03 | 0.03 | 79 | 1016.0 |
| 20260503194341 | 16 | 48 | 1.6 | 4.8 | 0.00 | 0.03 | 0.03 | 79 | 1015.8 |
| 20260503193340 | 16 | 47 | 0.0 | 6.4 | 0.00 | 0.03 | 0.03 | 79 | 1015.6 |
| 20260503192357 | 16 | 46 | 3.2 | 6.4 | 0.03 | 0.03 | 0.03 | 78 | 1015.5 |
| 20260503191358 | 16 | 45 | 1.6 | 8.0 | 0.03 | 0.03 | 0.03 | 77 | 1015.3 |
| 20260503190340 | 16 | 49 | 6.4 | 8.0 | 0.03 | 0.03 | 0.03 | 76 | 1015.2 |
| 20260503185342 | 16 | 85 | 3.2 | 8.0 | 0.03 | 0.03 | 0.03 | 76 | 1015.5 |
| 20260503184347 | 16 | 82 | 1.6 | 6.4 | 0.03 | 0.03 | 0.03 | 76 | 1015.6 |
| 20260503183352 | 16 | 81 | 1.6 | 6.4 | 0.03 | 0.03 | 0.03 | 75 | 1015.5 |
| 20260503182344 | 17 | 77 | 1.6 | 9.7 | 0.00 | 0.00 | 0.00 | 73 | 1015.4 |
| 20260503181350 | 17 | 58 | 3.2 | 6.4 | 0.00 | 0.00 | 0.00 | 72 | 1015.4 |
| 20260503180355 | 17 | 58 | 4.8 | 9.7 | 0.00 | 0.00 | 0.00 | 71 | 1015.3 |
| 20260503175354 | 17 | 111 | 4.8 | 9.7 | 0.00 | 0.00 | 0.00 | 70 | 1015.3 |
| 20260503174338 | 17 | 63 | 4.8 | 14.5 | 0.00 | 0.00 | 0.00 | 70 | 1015.2 |
| 20260503173341 | 17 | 79 | 4.8 | 9.7 | 0.00 | 0.00 | 0.00 | 70 | 1015.0 |
| 20260503172358 | 17 | 62 | 4.8 | 11.3 | 0.00 | 0.00 | 0.00 | 69 | 1015.0 |
| 20260503171339 | 17 | 55 | 6.4 | 11.3 | 0.00 | 0.00 | 0.00 | 68 | 1015.0 |
| 20260503170342 | 17 | 84 | 1.6 | 11.3 | 0.00 | 0.00 | 0.00 | 67 | 1015.1 |
| 20260503150351 | 18 | 141 | 6.4 | 14.5 | 0.00 | 0.00 | 0.00 | 66 | 1015.2 |
| 20260503131356 | 18 | 203 | 3.2 | 16.1 | 0.00 | 0.00 | 0.00 | 65 | 1016.8 |
| 20260503130339 | 18 | 113 | 9.7 | 17.7 | 0.00 | 0.00 | 0.00 | 63 | 1017.0 |
| 20260503110339 | 18 | 158 | 4.8 | 11.3 | 0.00 | 0.00 | 0.00 | 64 | 1017.9 |
| 20260503090346 | 18 | 109 | 4.8 | 11.3 | 0.00 | 0.00 | 0.00 | 64 | 1018.1 |
| 20260503081353 | 18 | 195 | 1.6 | 9.7 | 0.00 | 0.00 | 0.00 | 67 | 1017.8 |
| 20260503080337 | 18 | 58 | 3.2 | 9.7 | 0.00 | 0.00 | 0.00 | 68 | 1017.8 |
| 20260503072355 | 17 | 164 | 1.6 | 6.4 | 0.00 | 0.00 | 0.00 | 72 | 1017.9 |
| 20260503071341 | 17 | 122 | 3.2 | 12.9 | 0.00 | 0.00 | 0.00 | 73 | 1018.1 |
| 20260503070345 | 17 | 49 | 1.6 | 9.7 | 0.00 | 0.00 | 0.00 | 75 | 1017.9 |
| 20260503060341 | 16 | 42 | 4.8 | 8.0 | 0.00 | 0.00 | 0.00 | 79 | 1017.9 |
| 20260503054342 | 16 | 44 | 3.2 | 4.8 | 0.00 | 0.00 | 0.00 | 79 | 1018.0 |
| 20260503053346 | 16 | 45 | 1.6 | 4.8 | 0.00 | 0.00 | 0.00 | 79 | 1018.1 |
| 20260503052345 | 16 | 44 | 1.6 | 6.4 | 0.00 | 0.00 | 0.00 | 80 | 1018.0 |
| 20260503051352 | 16 | 45 | 3.2 | 6.4 | 0.00 | 0.00 | 0.00 | 79 | 1018.0 |
| 20260503050356 | 16 | 44 | 3.2 | 4.8 | 0.00 | 0.00 | 0.00 | 79 | 1017.9 |
| 20260503045351 | 16 | 44 | 1.6 | 3.2 | 0.00 | 0.00 | 0.00 | 79 | 1017.9 |
| 20260503044358 | 16 | 44 | 1.6 | 4.8 | 0.00 | 0.00 | 0.00 | 79 | 1018.0 |
| 20260503043341 | 16 | 44 | 1.6 | 6.4 | 0.00 | 0.00 | 0.00 | 79 | 1017.9 |
| 20260503042339 | 16 | 44 | 1.6 | 4.8 | 0.00 | 0.00 | 0.00 | 79 | 1017.9 |
| 20260503041339 | 16 | 44 | 1.6 | 6.4 | 0.00 | 0.00 | 0.00 | 79 | 1018.0 |
| 20260503040343 | 16 | 43 | 4.8 | 8.0 | 0.00 | 0.00 | 0.00 | 79 | 1017.9 |
| 20260503035359 | 16 | 65 | 3.2 | 8.0 | 0.00 | 0.00 | 0.00 | 79 | 1018.1 |
| 20260503034357 | 16 | 87 | 4.8 | 8.0 | 0.00 | 0.00 | 0.00 | 80 | 1018.1 |
| 20260503033358 | 16 | 43 | 3.2 | 6.4 | 0.00 | 0.00 | 0.00 | 79 | 1018.0 |
| 20260503032353 | 16 | 41 | 1.6 | 4.8 | 0.00 | 0.00 | 0.00 | 79 | 1018.0 |
| 20260503031355 | 16 | 41 | 0.0 | 3.2 | 0.00 | 0.00 | 0.00 | 79 | 1018.3 |
| 20260503030342 | 16 | 41 | 0.0 | 1.6 | 0.00 | 0.00 | 0.00 | 79 | 1018.5 |
| 20260503025344 | 16 | 41 | 0.0 | 3.2 | 0.00 | 0.00 | 0.00 | 79 | 1018.6 |
| 20260503024341 | 16 | 41 | 0.0 | 4.8 | 0.00 | 0.00 | 0.00 | 78 | 1018.6 |
| 20260503023342 | 16 | 41 | 1.6 | 4.8 | 0.00 | 0.00 | 0.00 | 78 | 1018.6 |
| 20260503022341 | 16 | 41 | 1.6 | 4.8 | 0.00 | 0.00 | 0.00 | 78 | 1018.8 |
| 20260503021347 | 16 | 41 | 3.2 | 4.8 | 0.00 | 0.00 | 0.00 | 78 | 1018.7 |
| 20260503020338 | 16 | 42 | 1.6 | 8.0 | 0.00 | 0.00 | 0.00 | 78 | 1018.7 |